Location: Leo
(52.0556°N, 112.3605°W)
Time: 11:47:39
(UTC+00:00)

Oscar 11 - Visible Passes

Search period start: 05 December 2023 00:00
Search period end: 15 December 2023 00:00
Orbit: 605 x 617 km, 97.7° (Epoch: 04 December)

Date Brightness Start Highest point End Pass type
(mag) Time Alt. Az. Time Alt. Az. Time Alt. Az.
07 Dec 10.1 00:04:43 10° WSW 00:06:46 13° W 00:08:49 10° WNW visible
12 Dec 9.9 23:55:31 10° SW 23:58:07 16° W 00:00:43 10° NW visible
14 Dec 10.2 00:11:25 10° WSW 00:12:51 11° W 00:14:18 10° WNW visible
